Location: Kaiser
(34.0939°N, 117.4889°W)
Time: 03:27:54
(UTC+00:00)

ARGOS Delta rocket - Pass Details

Date: 29 October 2020
Orbit: 636 x 837 km, 96.5° (Epoch: 26 November)

Event Time Altitude Azimuth Distance (km) Brightness Sun altitude
Rises 12:38:27 0° 11° (N) 3,368 7.4 -19.0°
Reaches altitude 10° 12:40:48 10° 12° (NNE) 2,443 6.7 -18.5°
Maximum altitude 12:46:17 85° 100° (E) 845 4.2 -17.3°
Drops below altitude 10° 12:51:44 10° 190° (S) 2,428 6.6 -16.2°
Sets 12:54:04 0° 190° (S) 3,345 7.3 -15.7°
